Wetterdaten: Woche 14.12.09 - 20.12.09 (KW51)
Datum Zeit Temperatur Luftfeuchte Luftdruck Niederschlag Windrichtung Wind
14.12.2009 00:00 -3,1 C 88 % 1017,6 hPa 0,0 l/m O 15,6 km/h (3 Bft)
14.12.2009 01:00 -3,2 C 88 % 1017,5 hPa 0,0 l/m O-NO 16,6 km/h (3 Bft)
14.12.2009 02:00 -3,2 C 89 % 1017,3 hPa 0,0 l/m NO 15,2 km/h (3 Bft)
14.12.2009 03:00 -3,2 C 89 % 1017,0 hPa 0,0 l/m O-NO 15,4 km/h (3 Bft)
14.12.2009 04:00 -3,2 C 88 % 1017,0 hPa 0,0 l/m O 14,4 km/h (3 Bft)
14.12.2009 05:00 -3,4 C 87 % 1016,8 hPa 0,0 l/m NO 19,2 km/h (3 Bft)
14.12.2009 06:00 -3,7 C 86 % 1016,8 hPa 0,0 l/m O 18,9 km/h (3 Bft)
14.12.2009 07:00 -4,1 C 86 % 1017,0 hPa 0,0 l/m O 20,0 km/h (4 Bft)
14.12.2009 08:00 -4,0 C 86 % 1017,2 hPa 0,0 l/m O 21,7 km/h (4 Bft)
14.12.2009 09:00 -3,7 C 85 % 1017,1 hPa 0,0 l/m O 22,4 km/h (4 Bft)
14.12.2009 10:00 -3,6 C 86 % 1017,2 hPa 0,0 l/m O-NO 21,7 km/h (4 Bft)
14.12.2009 11:00 -3,7 C 83 % 1016,7 hPa 0,0 l/m O-NO 21,6 km/h (4 Bft)
14.12.2009 12:00 -3,7 C 81 % 1016,5 hPa 0,0 l/m NO 22,0 km/h (4 Bft)
14.12.2009 13:00 -3,8 C 82 % 1016,3 hPa 0,0 l/m O 18,9 km/h (3 Bft)
14.12.2009 14:00 -3,8 C 85 % 1016,2 hPa 0,0 l/m NO 16,2 km/h (3 Bft)
14.12.2009 15:00 -3,8 C 85 % 1016,4 hPa 0,0 l/m O-NO 17,2 km/h (3 Bft)
14.12.2009 16:00 -3,8 C 86 % 1016,5 hPa 0,0 l/m O-NO 16,1 km/h (3 Bft)
14.12.2009 17:00 -3,8 C 87 % 1016,4 hPa 0,0 l/m O-NO 16,4 km/h (3 Bft)
14.12.2009 18:00 -3,8 C 86 % 1016,3 hPa 0,0 l/m O 17,6 km/h (3 Bft)
14.12.2009 19:00 -3,8 C 86 % 1016,1 hPa 0,0 l/m O-NO 18,6 km/h (3 Bft)
14.12.2009 20:00 -4,0 C 84 % 1016,2 hPa 0,0 l/m O 21,7 km/h (4 Bft)
14.12.2009 21:00 -4,2 C 83 % 1016,3 hPa 0,0 l/m O-SO 20,0 km/h (4 Bft)
14.12.2009 22:00 -4,3 C 82 % 1016,1 hPa 0,0 l/m O 21,2 km/h (4 Bft)
14.12.2009 23:00 -4,3 C 83 % 1016,0 hPa 0,0 l/m O 18,2 km/h (3 Bft)
15.12.2009 00:00 -4,4 C 85 % 1015,6 hPa 0,0 l/m O 17,7 km/h (3 Bft)
15.12.2009 01:00 -4,5 C 84 % 1015,3 hPa 0,0 l/m O 21,6 km/h (4 Bft)
15.12.2009 02:00 -4,6 C 85 % 1015,1 hPa 0,0 l/m O-NO 17,8 km/h (3 Bft)
15.12.2009 03:00 -4,8 C 86 % 1014,6 hPa 0,0 l/m O-NO 14,9 km/h (3 Bft)
15.12.2009 04:00 -4,8 C 86 % 1014,6 hPa 0,0 l/m O-NO 20,4 km/h (4 Bft)
15.12.2009 05:00 -4,9 C 87 % 1014,3 hPa 0,0 l/m O-NO 17,4 km/h (3 Bft)
15.12.2009 06:00 -4,8 C 87 % 1013,9 hPa 0,0 l/m O 17,4 km/h (3 Bft)
15.12.2009 07:00 -4,7 C 86 % 1013,9 hPa 0,0 l/m O-NO 18,9 km/h (3 Bft)
15.12.2009 08:00 -4,7 C 86 % 1014,2 hPa 0,0 l/m O-NO 20,4 km/h (4 Bft)
15.12.2009 09:00 -4,7 C 87 % 1014,3 hPa 0,0 l/m O 16,6 km/h (3 Bft)
15.12.2009 10:00 -4,6 C 87 % 1014,2 hPa 0,0 l/m O-NO 17,0 km/h (3 Bft)
15.12.2009 11:00 -4,6 C 86 % 1013,9 hPa 0,0 l/m O-NO 16,4 km/h (3 Bft)
15.12.2009 12:00 -4,5 C 86 % 1013,3 hPa 0,0 l/m NO 18,4 km/h (3 Bft)
15.12.2009 13:00 -4,4 C 85 % 1013,0 hPa 0,0 l/m O 18,5 km/h (3 Bft)
15.12.2009 14:00 -4,3 C 84 % 1012,9 hPa 0,0 l/m O-SO 16,8 km/h (3 Bft)
15.12.2009 15:00 -4,3 C 84 % 1012,9 hPa 0,0 l/m O 18,1 km/h (3 Bft)
15.12.2009 16:00 -4,4 C 88 % 1013,3 hPa 0,0 l/m O 10,2 km/h (2 Bft)
15.12.2009 17:00 -4,3 C 88 % 1013,0 hPa 0,0 l/m O-NO 9,8 km/h (2 Bft)
15.12.2009 18:00 -4,2 C 89 % 1012,9 hPa 0,0 l/m O-NO 10,1 km/h (2 Bft)
15.12.2009 19:00 -4,2 C 90 % 1012,7 hPa 0,0 l/m O-NO 8,7 km/h (2 Bft)
15.12.2009 20:00 -4,1 C 90 % 1012,6 hPa 0,0 l/m NO 9,5 km/h (2 Bft)
15.12.2009 21:00 -3,9 C 90 % 1012,4 hPa 0,0 l/m NO 8,3 km/h (2 Bft)
15.12.2009 22:00 -3,9 C 90 % 1012,1 hPa 0,0 l/m NO 8,2 km/h (2 Bft)
15.12.2009 23:00 -3,7 C 90 % 1012,1 hPa 0,0 l/m NO 10,9 km/h (2 Bft)
16.12.2009 00:00 -3,6 C 89 % 1011,9 hPa 0,0 l/m O-NO 10,1 km/h (2 Bft)
16.12.2009 01:00 -3,6 C 89 % 1012,0 hPa 0,0 l/m NO 10,3 km/h (2 Bft)
16.12.2009 02:00 -3,6 C 88 % 1011,9 hPa 0,0 l/m O-NO 8,0 km/h (2 Bft)
16.12.2009 03:00 -3,7 C 87 % 1011,8 hPa 0,0 l/m O-NO 8,3 km/h (2 Bft)
16.12.2009 04:00 -3,8 C 86 % 1011,7 hPa 0,0 l/m O-NO 8,7 km/h (2 Bft)
16.12.2009 05:00 -3,9 C 87 % 1011,8 hPa 0,0 l/m NO 6,9 km/h (2 Bft)
16.12.2009 06:00 -4,0 C 87 % 1011,5 hPa 0,0 l/m O-NO 5,9 km/h (2 Bft)
16.12.2009 07:00 -4,2 C 88 % 1011,4 hPa 0,0 l/m O-NO 5,2 km/h (1 Bft)
16.12.2009 08:00 -4,2 C 88 % 1011,4 hPa 0,0 l/m NO 7,0 km/h (2 Bft)
16.12.2009 09:00 -4,0 C 89 % 1011,3 hPa 0,0 l/m N-NO 6,2 km/h (2 Bft)
16.12.2009 10:00 -3,8 C 88 % 1010,9 hPa 0,0 l/m O-NO 8,0 km/h (2 Bft)
16.12.2009 11:00 -3,6 C 86 % 1010,5 hPa 0,0 l/m O 7,5 km/h (2 Bft)
16.12.2009 12:00 -3,4 C 83 % 1010,0 hPa 0,0 l/m O 8,7 km/h (2 Bft)
16.12.2009 13:00 -3,3 C 80 % 1009,5 hPa 0,0 l/m O-NO 9,8 km/h (2 Bft)
16.12.2009 14:00 -3,5 C 77 % 1009,3 hPa 0,0 l/m O 10,1 km/h (2 Bft)
16.12.2009 15:00 -3,4 C 78 % 1009,2 hPa 0,0 l/m O-NO 7,1 km/h (2 Bft)
16.12.2009 16:00 -3,7 C 81 % 1009,1 hPa 0,0 l/m O-NO 6,1 km/h (2 Bft)
16.12.2009 17:00 -3,9 C 83 % 1008,8 hPa 0,4 l/m O-NO 5,2 km/h (1 Bft)
16.12.2009 18:00 -4,1 C 82 % 1008,5 hPa 0,2 l/m O-NO 5,9 km/h (2 Bft)
16.12.2009 19:00 -4,3 C 82 % 1008,2 hPa 0,0 l/m O-NO 5,7 km/h (1 Bft)
16.12.2009 20:00 -4,5 C 82 % 1008,0 hPa 0,0 l/m O-NO 4,4 km/h (1 Bft)
16.12.2009 21:00 -4,6 C 82 % 1008,0 hPa 0,0 l/m NO 4,4 km/h (1 Bft)
16.12.2009 22:00 -4,8 C 76 % 1007,9 hPa 0,0 l/m O-NO 4,3 km/h (1 Bft)
16.12.2009 23:00 -4,9 C 72 % 1007,9 hPa 0,0 l/m O 3,9 km/h (1 Bft)
17.12.2009 00:00 -5,0 C 73 % 1007,9 hPa 0,0 l/m NO 5,2 km/h (1 Bft)
17.12.2009 01:00 -5,2 C 78 % 1007,7 hPa 0,0 l/m N-NO 5,6 km/h (1 Bft)
17.12.2009 02:00 -5,4 C 80 % 1007,9 hPa 0,0 l/m N 3,5 km/h (1 Bft)
17.12.2009 03:00 -5,5 C 81 % 1008,0 hPa 0,0 l/m N-NW 3,6 km/h (1 Bft)
17.12.2009 04:00 -5,6 C 82 % 1007,9 hPa 0,0 l/m N 2,8 km/h (1 Bft)
17.12.2009 05:00 -5,6 C 82 % 1007,8 hPa 0,0 l/m N 1,3 km/h (1 Bft)
17.12.2009 06:00 -5,7 C 82 % 1007,8 hPa 0,0 l/m N 1,2 km/h (1 Bft)
17.12.2009 07:00 -5,8 C 83 % 1008,0 hPa 0,0 l/m N 1,7 km/h (1 Bft)
17.12.2009 08:00 -5,8 C 83 % 1008,3 hPa 0,0 l/m N-NW 2,5 km/h (1 Bft)
17.12.2009 09:00 -5,5 C 80 % 1008,7 hPa 0,0 l/m N-NW 5,3 km/h (1 Bft)
17.12.2009 10:00 -4,9 C 74 % 1008,7 hPa 0,0 l/m SW 5,2 km/h (1 Bft)
17.12.2009 11:00 -4,5 C 71 % 1008,5 hPa 0,0 l/m SW 3,1 km/h (1 Bft)
17.12.2009 12:00 -4,2 C 67 % 1008,2 hPa 0,0 l/m SW 4,8 km/h (1 Bft)
17.12.2009 13:00 -3,9 C 65 % 1008,0 hPa 0,0 l/m S-SW 4,4 km/h (1 Bft)
17.12.2009 14:00 -4,0 C 69 % 1008,2 hPa 0,0 l/m NW 4,8 km/h (1 Bft)
17.12.2009 15:00 -4,2 C 70 % 1008,5 hPa 0,0 l/m NW 4,9 km/h (1 Bft)
17.12.2009 16:00 -4,5 C 69 % 1008,8 hPa 0,0 l/m N 1,9 km/h (1 Bft)
17.12.2009 17:00 -5,3 C 75 % 1009,0 hPa 0,0 l/m O-NO 1,6 km/h (1 Bft)
17.12.2009 18:00 -5,7 C 80 % 1008,8 hPa 0,0 l/m N-NO 3,6 km/h (1 Bft)
17.12.2009 19:00 -5,7 C 81 % 1008,9 hPa 0,0 l/m SW 2,8 km/h (1 Bft)
17.12.2009 20:00 -5,8 C 81 % 1008,8 hPa 0,0 l/m N 0,7 km/h (0 Bft)
17.12.2009 21:00 -5,9 C 81 % 1008,9 hPa 0,0 l/m N 0,7 km/h (0 Bft)
17.12.2009 22:00 -5,9 C 83 % 1008,9 hPa 0,0 l/m N 0,3 km/h (0 Bft)
17.12.2009 23:00 -5,9 C 82 % 1008,7 hPa 0,0 l/m N 0,9 km/h (0 Bft)
18.12.2009 00:00 -5,8 C 82 % 1008,4 hPa 0,0 l/m SO 1,2 km/h (1 Bft)
18.12.2009 01:00 -6,0 C 83 % 1007,9 hPa 0,0 l/m O-SO 3,1 km/h (1 Bft)
18.12.2009 02:00 -6,0 C 83 % 1008,3 hPa 0,0 l/m N 2,3 km/h (1 Bft)
18.12.2009 03:00 -6,2 C 84 % 1008,4 hPa 0,0 l/m N-NW 4,4 km/h (1 Bft)
18.12.2009 04:00 -6,6 C 85 % 1007,9 hPa 0,0 l/m N-NO 3,6 km/h (1 Bft)
18.12.2009 05:00 -6,9 C 86 % 1007,3 hPa 0,0 l/m N 2,0 km/h (1 Bft)
18.12.2009 06:00 -7,7 C 86 % 1007,0 hPa 0,0 l/m N 1,6 km/h (1 Bft)
18.12.2009 07:00 -8,9 C 87 % 1006,5 hPa 0,0 l/m N 2,4 km/h (1 Bft)
18.12.2009 08:00 -9,7 C 89 % 1006,5 hPa 0,0 l/m N-NO 2,0 km/h (1 Bft)
18.12.2009 09:00 -9,2 C 91 % 1006,5 hPa 0,0 l/m N-NO 3,1 km/h (1 Bft)
18.12.2009 10:00 -7,3 C 86 % 1006,4 hPa 0,0 l/m N 4,8 km/h (1 Bft)
18.12.2009 11:00 -5,9 C 81 % 1005,7 hPa 0,0 l/m N 6,7 km/h (2 Bft)
18.12.2009 12:00 -4,9 C 73 % 1005,1 hPa 0,0 l/m O-NO 7,2 km/h (2 Bft)
18.12.2009 13:00 -4,5 C 62 % 1004,5 hPa 0,0 l/m O-NO 7,8 km/h (2 Bft)
18.12.2009 14:00 -4,5 C 62 % 1004,1 hPa 0,0 l/m O 6,7 km/h (2 Bft)
18.12.2009 15:00 -4,8 C 62 % 1003,8 hPa 0,0 l/m O-SO 3,7 km/h (1 Bft)
18.12.2009 16:00 -6,3 C 68 % 1003,6 hPa 0,0 l/m N 0,5 km/h (0 Bft)
18.12.2009 17:00 -8,0 C 76 % 1003,7 hPa 0,0 l/m N 0,8 km/h (0 Bft)
18.12.2009 18:00 -8,9 C 80 % 1003,7 hPa 0,0 l/m N 0,0 km/h (0 Bft)
18.12.2009 19:00 -9,3 C 81 % 1003,7 hPa 0,0 l/m N-NW 3,3 km/h (1 Bft)
18.12.2009 20:00 -9,6 C 81 % 1003,6 hPa 0,0 l/m N 0,5 km/h (0 Bft)
18.12.2009 21:00 -10,3 C 84 % 1003,3 hPa 0,0 l/m N 0,4 km/h (0 Bft)
18.12.2009 22:00 -10,9 C 85 % 1003,0 hPa 0,0 l/m N 0,1 km/h (0 Bft)
18.12.2009 23:00 -11,4 C 87 % 1002,9 hPa 0,0 l/m N 0,5 km/h (0 Bft)
19.12.2009 00:00 -11,3 C 89 % 1002,7 hPa 0,0 l/m N 0,5 km/h (0 Bft)
19.12.2009 01:00 -10,0 C 92 % 1002,6 hPa 0,0 l/m W 5,6 km/h (1 Bft)
19.12.2009 02:00 -7,7 C 89 % 1003,0 hPa 0,0 l/m W 16,8 km/h (3 Bft)
19.12.2009 03:00 -8,9 C 86 % 1003,5 hPa 0,0 l/m N 14,6 km/h (3 Bft)
19.12.2009 04:00 -9,4 C 85 % 1003,5 hPa 0,0 l/m N-NW 4,3 km/h (1 Bft)
19.12.2009 05:00 -9,7 C 84 % 1003,5 hPa 0,0 l/m N 0,4 km/h (0 Bft)
19.12.2009 06:00 -10,1 C 87 % 1003,5 hPa 0,0 l/m N 1,1 km/h (0 Bft)
19.12.2009 07:00 -9,8 C 88 % 1003,1 hPa 0,0 l/m N 2,1 km/h (1 Bft)
19.12.2009 08:00 -9,7 C 88 % 1003,3 hPa 0,2 l/m N 2,4 km/h (1 Bft)
19.12.2009 09:00 -9,3 C 87 % 1003,6 hPa 0,2 l/m N-NO 3,9 km/h (1 Bft)
19.12.2009 10:00 -8,7 C 85 % 1003,3 hPa 0,2 l/m N-NO 5,2 km/h (1 Bft)
19.12.2009 11:00 -8,4 C 82 % 1003,4 hPa 0,0 l/m N 8,2 km/h (2 Bft)
19.12.2009 12:00 -8,7 C 83 % 1003,4 hPa 0,0 l/m N-NO 13,4 km/h (3 Bft)
19.12.2009 13:00 -9,2 C 82 % 1003,7 hPa 0,2 l/m N-NO 14,1 km/h (3 Bft)
19.12.2009 14:00 -10,0 C 83 % 1004,0 hPa 0,0 l/m N-NO 12,9 km/h (3 Bft)
19.12.2009 15:00 -10,6 C 83 % 1004,9 hPa 0,2 l/m N-NO 11,3 km/h (2 Bft)
19.12.2009 16:00 -11,7 C 83 % 1005,6 hPa 0,0 l/m N-NO 7,4 km/h (2 Bft)
19.12.2009 17:00 -12,3 C 84 % 1006,6 hPa 0,0 l/m N 4,8 km/h (1 Bft)
19.12.2009 18:00 -12,8 C 84 % 1007,5 hPa 0,0 l/m N-NO 5,5 km/h (1 Bft)
19.12.2009 19:00 -13,8 C 81 % 1008,3 hPa 0,0 l/m N 4,1 km/h (1 Bft)
19.12.2009 20:00 -15,4 C 82 % 1009,2 hPa 0,0 l/m N 1,3 km/h (1 Bft)
19.12.2009 21:00 -16,5 C 84 % 1009,6 hPa 0,0 l/m N 0,7 km/h (0 Bft)
19.12.2009 22:00 -17,1 C 84 % 1010,0 hPa 0,0 l/m N 0,8 km/h (0 Bft)
19.12.2009 23:00 -17,9 C 85 % 1010,4 hPa 0,0 l/m N 0,1 km/h (0 Bft)
20.12.2009 00:00 -18,4 C 85 % 1010,7 hPa 0,0 l/m N 0,4 km/h (0 Bft)
20.12.2009 01:00 -18,5 C 86 % 1010,8 hPa 0,0 l/m N 1,1 km/h (0 Bft)
20.12.2009 02:00 -18,5 C 86 % 1011,4 hPa 0,0 l/m N 0,0 km/h (0 Bft)
20.12.2009 03:00 -18,7 C 86 % 1011,7 hPa 0,0 l/m N 0,5 km/h (0 Bft)
20.12.2009 04:00 -18,8 C 87 % 1011,9 hPa 0,0 l/m N 0,0 km/h (0 Bft)
20.12.2009 05:00 -18,8 C 87 % 1012,0 hPa 0,0 l/m N 1,1 km/h (0 Bft)
20.12.2009 06:00 -18,1 C 89 % 1012,3 hPa 0,0 l/m SW 4,0 km/h (1 Bft)
20.12.2009 07:00 -16,9 C 90 % 1012,6 hPa 0,0 l/m SW 7,2 km/h (2 Bft)
20.12.2009 08:00 -15,0 C 91 % 1012,4 hPa 0,0 l/m SW 12,8 km/h (3 Bft)
20.12.2009 09:00 -13,9 C 90 % 1012,5 hPa 0,0 l/m SW 6,2 km/h (2 Bft)
20.12.2009 10:00 -10,9 C 89 % 1012,1 hPa 0,2 l/m SW 12,1 km/h (2 Bft)
20.12.2009 11:00 -8,7 C 82 % 1011,4 hPa 0,0 l/m S-SW 20,2 km/h (4 Bft)
20.12.2009 12:00 -7,2 C 79 % 1010,3 hPa 0,0 l/m SW 21,4 km/h (4 Bft)
20.12.2009 13:00 -6,1 C 75 % 1009,1 hPa 0,0 l/m W-SW 22,1 km/h (4 Bft)
20.12.2009 14:00 -6,1 C 77 % 1008,1 hPa 0,0 l/m SW 23,2 km/h (4 Bft)
20.12.2009 15:00 -5,9 C 77 % 1007,4 hPa 0,0 l/m SW 29,5 km/h (5 Bft)
20.12.2009 16:00 -5,5 C 76 % 1006,5 hPa 0,0 l/m SW 27,4 km/h (4 Bft)
20.12.2009 17:00 -5,6 C 81 % 1006,0 hPa 0,0 l/m SW 21,8 km/h (4 Bft)
20.12.2009 18:00 -5,5 C 89 % 1005,8 hPa 0,2 l/m W-SW 19,8 km/h (4 Bft)
20.12.2009 19:00 -4,7 C 93 % 1005,9 hPa 0,2 l/m SW 25,9 km/h (4 Bft)
20.12.2009 20:00 -4,0 C 93 % 1006,2 hPa 0,2 l/m SW 22,8 km/h (4 Bft)
20.12.2009 21:00 -4,1 C 94 % 1006,5 hPa 0,2 l/m SW 21,4 km/h (4 Bft)
20.12.2009 22:00 -3,6 C 95 % 1007,1 hPa 0,0 l/m SW 17,3 km/h (3 Bft)
20.12.2009 23:00 -2,6 C 95 % 1007,3 hPa 0,0 l/m SW 13,6 km/h (3 Bft)
Min-Datum _ 20.12.09 18.12.09 19.12.09 - - 17.12.09
_ Min-Zeit 04:40 13:50 01:25 - - 05:00
Minimum _ -18,9 C 57 % 1002,5 hPa - - 0,0 km/h (0 Bft)
Max-Datum _ 20.12.09 20.12.09 14.12.09 16.12.09 - 20.12.09
_ Max-Zeit 23:30 08:20 00:55 17:00 - 15:35
Maximum _ -2,5 C 100 % 1017,7 hPa 0,4 l/m - 37,0 km/h
W-SW (5 Bft)
Durchschnitt _ -6,7 C 84 % 1009,8 hPa #2,6 l/m O-NO 9,5 km/h (2 Bft)